Time,TemperatureF,DewpointF,PressureIn,WindDirection,WindDirectionDegrees,WindSpeedMPH,WindSpeedGustMPH,Humidity,HourlyPrecipIn,Conditions,Clouds,dailyrainin,SolarRadiationWatts/m^2,SoftwareType,DateUTC
2013-01-24 00:02:00,37.0,37.0,-100.00,SW,220,0.0,0.0,99,0.00,,,0.27,4.000000,,2013-01-24 08:02:00,
2013-01-24 00:12:00,37.0,37.0,-100.00,SW,220,0.0,0.0,99,0.00,,,0.27,4.000000,,2013-01-24 08:12:00,
2013-01-24 00:43:00,37.0,37.0,-100.00,ESE,118,0.0,0.0,99,0.00,,,0.27,3.000000,,2013-01-24 08:43:00,
2013-01-24 00:53:00,37.0,37.0,-100.00,ESE,118,0.0,0.0,99,0.00,,,0.27,3.000000,,2013-01-24 08:53:00,
2013-01-24 01:02:00,37.0,37.0,-100.00,ESE,118,0.0,0.0,99,0.00,,,0.27,3.000000,,2013-01-24 09:02:00,
2013-01-24 01:12:00,37.0,37.0,-100.00,ESE,118,0.0,0.0,99,0.00,,,0.27,3.000000,,2013-01-24 09:12:00,
2013-01-24 01:33:00,37.0,37.0,-100.00,NE,47,0.0,2.0,99,0.00,,,0.27,3.000000,,2013-01-24 09:33:00,
2013-01-24 01:43:00,37.0,37.0,-100.00,NE,47,0.0,2.0,99,0.00,,,0.27,3.000000,,2013-01-24 09:43:00,
2013-01-24 01:53:00,37.0,37.0,-100.00,NE,47,0.0,2.0,99,0.00,,,0.27,3.000000,,2013-01-24 09:53:00,
2013-01-24 02:02:00,37.0,37.0,-100.00,NE,47,0.0,2.0,99,0.00,,,0.27,3.000000,,2013-01-24 10:02:00,
2013-01-24 02:11:00,37.0,37.0,-100.00,NE,47,0.0,2.0,99,0.00,,,0.27,3.000000,,2013-01-24 10:11:00,
2013-01-24 02:33:00,35.0,35.0,-100.00,North,6,1.0,5.0,99,0.00,,,0.27,3.000000,,2013-01-24 10:33:00,
2013-01-24 02:43:00,35.0,35.0,-100.00,North,6,1.0,5.0,99,0.00,,,0.27,3.000000,,2013-01-24 10:43:00,
2013-01-24 02:53:00,35.0,35.0,-100.00,North,6,1.0,5.0,99,0.00,,,0.27,3.000000,,2013-01-24 10:53:00,
2013-01-24 03:02:00,35.0,35.0,-100.00,North,6,1.0,5.0,99,0.00,,,0.27,3.000000,,2013-01-24 11:02:00,
2013-01-24 03:12:00,35.0,35.0,-100.00,North,6,1.0,5.0,99,0.00,,,0.27,3.000000,,2013-01-24 11:12:00,
2013-01-24 03:33:00,35.0,35.0,-100.00,NNE,15,0.0,5.0,99,0.00,,,0.27,3.000000,,2013-01-24 11:33:00,
2013-01-24 03:43:00,35.0,35.0,-100.00,NNE,15,0.0,5.0,99,0.00,,,0.27,3.000000,,2013-01-24 11:43:00,
2013-01-24 03:53:00,35.0,35.0,-100.00,NNE,15,0.0,5.0,99,0.00,,,0.27,3.000000,,2013-01-24 11:53:00,
2013-01-24 04:03:00,35.0,35.0,-100.00,NNE,15,0.0,5.0,99,0.00,,,0.27,3.000000,,2013-01-24 12:03:00,
2013-01-24 04:12:00,35.0,35.0,-100.00,NNE,15,0.0,5.0,99,0.00,,,0.27,3.000000,,2013-01-24 12:12:00,
2013-01-24 04:33:00,35.0,35.0,-100.00,SSE,160,3.0,6.0,99,0.00,,,0.27,3.000000,,2013-01-24 12:33:00,
2013-01-24 04:43:00,35.0,35.0,-100.00,SSE,160,3.0,6.0,99,0.00,,,0.27,3.000000,,2013-01-24 12:43:00,
2013-01-24 04:53:00,35.0,35.0,-100.00,SSE,160,3.0,6.0,99,0.00,,,0.27,3.000000,,2013-01-24 12:53:00,
2013-01-24 05:02:00,35.0,35.0,-100.00,SSE,160,3.0,6.0,99,0.00,,,0.27,3.000000,,2013-01-24 13:02:00,
2013-01-24 05:12:00,35.0,35.0,-100.00,SSE,160,3.0,6.0,99,0.00,,,0.27,3.000000,,2013-01-24 13:12:00,
2013-01-24 06:43:00,34.0,34.0,-100.00,SE,130,0.0,3.0,99,-99.99,,,0.27,3.000000,,2013-01-24 14:43:00,
2013-01-24 06:54:00,34.0,34.0,-100.00,SE,130,0.0,3.0,99,-99.99,,,0.27,3.000000,,2013-01-24 14:54:00,
2013-01-24 07:03:00,34.0,34.0,-100.00,SE,130,0.0,3.0,99,-99.99,,,0.27,3.000000,,2013-01-24 15:03:00,
2013-01-24 07:12:00,34.0,34.0,-100.00,SE,130,0.0,3.0,99,-99.99,,,0.27,3.000000,,2013-01-24 15:12:00,
2013-01-24 07:43:00,34.0,34.0,-100.00,SSW,195,0.0,3.0,99,0.01,,,0.28,3.000000,,2013-01-24 15:43:00,
2013-01-24 07:53:00,34.0,34.0,-100.00,SSW,195,0.0,3.0,99,0.01,,,0.28,3.000000,,2013-01-24 15:53:00,
2013-01-24 08:03:00,34.0,34.0,-100.00,SSW,195,0.0,3.0,99,0.01,,,0.28,3.000000,,2013-01-24 16:03:00,
2013-01-24 08:12:00,34.0,34.0,-100.00,SSW,195,0.0,3.0,99,0.01,,,0.28,3.000000,,2013-01-24 16:12:00,
2013-01-24 08:33:00,37.0,37.0,-100.00,South,187,2.0,7.0,99,0.00,,,0.28,13.000000,,2013-01-24 16:33:00,
2013-01-24 08:43:00,37.0,37.0,-100.00,South,187,2.0,7.0,99,0.00,,,0.28,13.000000,,2013-01-24 16:43:00,
2013-01-24 09:02:00,37.0,37.0,-100.00,South,187,2.0,7.0,99,0.00,,,0.28,13.000000,,2013-01-24 17:02:00,
2013-01-24 09:11:00,37.0,37.0,-100.00,South,187,2.0,7.0,99,0.00,,,0.28,13.000000,,2013-01-24 17:11:00,
2013-01-24 09:42:00,38.0,38.0,-100.00,South,189,1.0,8.0,99,0.00,,,0.28,61.000000,,2013-01-24 17:42:00,
2013-01-24 09:52:00,38.0,38.0,-100.00,South,189,1.0,8.0,99,0.00,,,0.28,61.000000,,2013-01-24 17:52:00,
2013-01-24 10:02:00,38.0,38.0,-100.00,South,189,1.0,8.0,99,0.00,,,0.28,61.000000,,2013-01-24 18:02:00,
2013-01-24 10:11:00,38.0,38.0,-100.00,South,189,1.0,8.0,99,0.00,,,0.28,61.000000,,2013-01-24 18:11:00,
2013-01-24 10:33:00,42.0,42.0,-100.00,SSW,193,3.0,6.0,99,0.00,,,0.28,156.000000,,2013-01-24 18:33:00,
2013-01-24 11:33:00,42.0,42.0,-100.00,SSW,195,2.0,6.0,99,-99.99,,,0.28,198.000000,,2013-01-24 19:33:00,
2013-01-24 11:42:00,42.0,42.0,-100.00,SSW,195,2.0,6.0,99,-99.99,,,0.28,198.000000,,2013-01-24 19:42:00,
2013-01-24 11:52:00,42.0,42.0,-100.00,SSW,195,2.0,6.0,99,-99.99,,,0.28,198.000000,,2013-01-24 19:52:00,
2013-01-24 12:01:00,42.0,42.0,-100.00,SSW,195,2.0,6.0,99,-99.99,,,0.28,198.000000,,2013-01-24 20:01:00,
2013-01-24 12:11:00,42.0,42.0,-100.00,SSW,195,2.0,6.0,99,-99.99,,,0.28,198.000000,,2013-01-24 20:11:00,
2013-01-24 12:33:00,52.0,46.0,-100.00,SSW,193,3.0,8.0,79,0.00,,,-99.99,498.000000,,2013-01-24 20:33:00,
2013-01-24 13:43:00,56.0,46.0,-100.00,SSW,201,4.0,11.0,69,-99.99,,,0.25,566.000000,,2013-01-24 21:43:00,
2013-01-24 14:33:00,51.0,44.0,-100.00,SSW,197,7.0,14.0,78,-99.99,,,0.15,418.000000,,2013-01-24 22:33:00,
2013-01-24 15:32:00,51.0,43.0,-100.00,SSW,204,6.0,15.0,75,0.00,,,0.09,242.000000,,2013-01-24 23:32:00,
2013-01-24 15:42:00,51.0,43.0,-100.00,SSW,204,6.0,15.0,75,0.00,,,0.09,242.000000,,2013-01-24 23:42:00,
2013-01-24 15:52:00,51.0,43.0,-100.00,SSW,204,6.0,15.0,75,0.00,,,0.09,242.000000,,2013-01-24 23:52:00,
2013-01-24 16:01:00,51.0,43.0,-100.00,SSW,204,6.0,15.0,75,0.00,,,0.09,242.000000,,2013-01-25 00:01:00,
2013-01-24 16:12:00,51.0,43.0,-100.00,SSW,204,6.0,15.0,75,0.00,,,0.09,242.000000,,2013-01-25 00:12:00,
2013-01-24 16:32:00,48.0,43.0,-100.00,SSW,199,6.0,13.0,82,0.00,,,0.04,118.000000,,2013-01-25 00:32:00,
2013-01-24 16:42:00,48.0,43.0,-100.00,SSW,199,6.0,13.0,82,0.00,,,0.04,118.000000,,2013-01-25 00:42:00,
2013-01-24 16:52:00,48.0,43.0,-100.00,SSW,199,6.0,13.0,82,0.00,,,0.04,118.000000,,2013-01-25 00:52:00,
2013-01-24 17:01:00,48.0,43.0,-100.00,SSW,199,6.0,13.0,82,0.00,,,0.04,118.000000,,2013-01-25 01:01:00,
2013-01-24 17:11:00,48.0,43.0,-100.00,SSW,199,6.0,13.0,82,0.00,,,0.04,118.000000,,2013-01-25 01:11:00,
2013-01-24 17:32:00,45.0,41.0,-100.00,SSW,201,4.0,9.0,86,0.00,,,0.02,26.000000,,2013-01-25 01:32:00,
2013-01-24 17:42:00,45.0,41.0,-100.00,SSW,201,4.0,9.0,86,0.00,,,0.02,26.000000,,2013-01-25 01:42:00,
2013-01-24 17:52:00,45.0,41.0,-100.00,SSW,201,4.0,9.0,86,0.00,,,0.02,26.000000,,2013-01-25 01:52:00,
2013-01-24 18:02:00,45.0,41.0,-100.00,SSW,201,4.0,9.0,86,0.00,,,0.02,26.000000,,2013-01-25 02:02:00,
2013-01-24 18:11:00,45.0,41.0,-100.00,SSW,201,4.0,9.0,86,0.00,,,0.02,26.000000,,2013-01-25 02:11:00,
2013-01-24 18:33:00,45.0,43.0,-100.00,SSW,203,5.0,9.0,93,0.00,,,0.01,6.000000,,2013-01-25 02:33:00,
2013-01-24 18:43:00,45.0,43.0,-100.00,SSW,203,5.0,9.0,93,0.00,,,0.01,6.000000,,2013-01-25 02:43:00,
2013-01-24 18:52:00,45.0,43.0,-100.00,SSW,203,5.0,9.0,93,0.00,,,0.01,6.000000,,2013-01-25 02:52:00,
2013-01-24 19:01:00,45.0,43.0,-100.00,SSW,203,5.0,9.0,93,0.00,,,0.01,6.000000,,2013-01-25 03:01:00,
2013-01-24 19:11:00,45.0,43.0,-100.00,SSW,203,5.0,9.0,93,0.00,,,0.01,6.000000,,2013-01-25 03:11:00,
2013-01-24 19:33:00,45.0,44.0,-100.00,SSW,198,2.0,9.0,98,0.01,,,0.02,6.000000,,2013-01-25 03:33:00,
2013-01-24 19:42:00,45.0,44.0,-100.00,SSW,198,2.0,9.0,98,0.01,,,0.02,6.000000,,2013-01-25 03:42:00,
2013-01-24 19:52:00,45.0,44.0,-100.00,SSW,198,2.0,9.0,98,0.01,,,0.02,6.000000,,2013-01-25 03:52:00,
2013-01-24 20:01:00,45.0,44.0,-100.00,SSW,198,2.0,9.0,98,0.01,,,0.02,6.000000,,2013-01-25 04:01:00,
2013-01-24 20:11:00,45.0,44.0,-100.00,SSW,198,2.0,9.0,98,0.01,,,0.02,6.000000,,2013-01-25 04:11:00,
2013-01-24 20:32:00,43.0,43.0,-100.00,SSW,193,3.0,6.0,99,0.04,,,-99.99,5.000000,,2013-01-25 04:32:00,
2013-01-24 20:42:00,43.0,43.0,-100.00,SSW,193,3.0,6.0,99,0.04,,,-99.99,5.000000,,2013-01-25 04:42:00,
2013-01-24 20:51:00,43.0,43.0,-100.00,SSW,193,3.0,6.0,99,0.04,,,-99.99,5.000000,,2013-01-25 04:51:00,
2013-01-24 21:03:00,43.0,43.0,-100.00,SSW,193,3.0,6.0,99,0.04,,,-99.99,5.000000,,2013-01-25 05:03:00,
2013-01-24 21:12:00,43.0,43.0,-100.00,SSW,193,3.0,6.0,99,0.04,,,-99.99,5.000000,,2013-01-25 05:12:00,
2013-01-24 21:32:00,43.0,43.0,-100.00,South,191,6.0,11.0,99,0.05,,,0.11,5.000000,,2013-01-25 05:32:00,
2013-01-24 21:43:00,43.0,43.0,-100.00,South,191,6.0,11.0,99,0.05,,,0.11,5.000000,,2013-01-25 05:43:00,
2013-01-24 21:52:00,43.0,43.0,-100.00,South,191,6.0,11.0,99,0.05,,,0.11,5.000000,,2013-01-25 05:52:00,
2013-01-24 22:02:00,43.0,43.0,-100.00,South,191,6.0,11.0,99,0.05,,,0.11,5.000000,,2013-01-25 06:02:00,
2013-01-24 22:11:00,43.0,43.0,-100.00,South,191,6.0,11.0,99,0.05,,,0.11,5.000000,,2013-01-25 06:11:00,
2013-01-24 22:32:00,43.0,43.0,-100.00,SSW,197,4.0,9.0,99,0.06,,,0.17,5.000000,,2013-01-25 06:32:00,
2013-01-24 22:42:00,43.0,43.0,-100.00,SSW,197,4.0,9.0,99,0.06,,,0.17,5.000000,,2013-01-25 06:42:00,
2013-01-24 22:52:00,43.0,43.0,-100.00,SSW,197,4.0,9.0,99,0.06,,,0.17,5.000000,,2013-01-25 06:52:00,
2013-01-24 23:01:00,43.0,43.0,-100.00,SSW,197,4.0,9.0,99,0.06,,,0.17,5.000000,,2013-01-25 07:01:00,
2013-01-24 23:11:00,43.0,43.0,-100.00,SSW,197,4.0,9.0,99,0.06,,,0.17,5.000000,,2013-01-25 07:11:00,
2013-01-24 23:32:00,45.0,45.0,-100.00,SSW,194,5.0,9.0,99,0.04,,,0.21,6.000000,,2013-01-25 07:32:00,
2013-01-24 23:42:00,45.0,45.0,-100.00,SSW,194,5.0,9.0,99,0.04,,,0.21,6.000000,,2013-01-25 07:42:00,
2013-01-24 23:52:00,45.0,45.0,-100.00,SSW,194,5.0,9.0,99,0.04,,,0.21,6.000000,,2013-01-25 07:52:00,